Daytona Beach, FL

6:21 AM EDT on May 22, 2018 (GMT -0400)
Daytona Beach International

Weather History for KDAB - May, 2018

Change the Weather History Date:

Thursday, May 17, 2018

  Actual Average Record
Temperature  
Mean Temperature 78 °F 75 °F  
Max Temperature 85 °F 85 °F 95 °F (1963)
Min Temperature 71 °F 66 °F 51 °F (1939)
Degree Days  
Heating Degree Days 0 0  
Month to date heating degree days 0 0  
Since 1 July heating degree days 645 807  
Cooling Degree Days 13 10  
Month to date cooling degree days 141 146  
Year to date cooling degree days 541 433  
Growing Degree Days 26 (Base 50)    
Moisture  
Dew Point 71 °F    
Average Humidity 87    
Maximum Humidity 100    
Minimum Humidity 74    
Precipitation  
Precipitation 0.01 in 0.10 in 3.12 in (2016)
Month to date precipitation 3.85 1.31  
Year to date precipitation 16.35 13.25  
Sea Level Pressure  
Sea Level Pressure 29.95 in    
Wind  
Wind Speed 7 mph (South)    
Max Wind Speed 17 mph    
Max Gust Speed 23 mph    
Visibility 10 miles    
Events Rain , Thunderstorm    
T = Trace of Precipitation, MM = Missing Value Source: NWS Daily Summary

Daily Weather History Graph

Daily Weather History Graph

Search for Another Location

Airport or City:

Astronomy

May. 17, 2018 Rise Set
Actual Time 6:31 AM EDT 8:10 PM EDT
Civil Twilight 6:05 AM EDT 8:36 PM EDT
Nautical Twilight 5:34 AM EDT 9:07 PM EDT
Astronomical Twilight 5:01 AM EDT 9:40 PM EDT
Moon 8:34 AM EDT (5/17) 10:41 PM EDT (5/17)
Length of Visible Light 14h 31m
Length of Day
13h 39m
Waxing Crescent, 7% of the Moon is Illuminated
May 17
Waxing Crescent
May 21
First Quarter
May 29
Full
Jun 6
Last Quarter
Jun 13
New

Hourly Weather History & Observations

Time (EDT) Temp. Heat Index Dew Point Humidity Pressure Visibility Wind Dir Wind Speed Gust Speed Precip Events Conditions
12:53 AM 72.0 °F - 71.1 °F 97% 29.95 in 10.0 mi South 8.1 mph - N/A   Partly Cloudy
1:53 AM 71.1 °F - 71.1 °F 100% 29.94 in 10.0 mi South 4.6 mph - N/A   Scattered Clouds
2:53 AM 71.1 °F - 71.1 °F 100% 29.93 in 10.0 mi South 6.9 mph - N/A   Mostly Cloudy
3:53 AM 72.0 °F - 72.0 °F 100% 29.92 in 10.0 mi South 4.6 mph - N/A   Scattered Clouds
4:53 AM 72.0 °F - 72.0 °F 100% 29.93 in 10.0 mi South 6.9 mph - N/A   Mostly Cloudy
5:53 AM 72.0 °F - 72.0 °F 100% 29.93 in 10.0 mi SSW 5.8 mph - N/A   Mostly Cloudy
6:53 AM 72.0 °F - 72.0 °F 100% 29.94 in 10.0 mi South 5.8 mph - N/A   Mostly Cloudy
7:53 AM 73.0 °F - 73.0 °F 100% 29.94 in 10.0 mi South 5.8 mph - N/A   Mostly Cloudy
8:53 AM 75.0 °F - 73.9 °F 96% 29.96 in 10.0 mi SSW 9.2 mph - N/A   Mostly Cloudy
9:53 AM 75.9 °F - 73.9 °F 94% 29.97 in 10.0 mi South 10.4 mph - N/A   Mostly Cloudy
10:53 AM 78.1 °F - 73.9 °F 87% 29.97 in 10.0 mi SSW 10.4 mph - N/A   Mostly Cloudy
11:53 AM 82.0 °F 87.4 °F 73.0 °F 74% 29.96 in 10.0 mi SW 10.4 mph - N/A   Mostly Cloudy
12:53 PM 82.0 °F 86.3 °F 71.1 °F 69% 29.94 in 10.0 mi SSW 12.7 mph 21.9 mph N/A Thunderstorm Thunderstorm
1:53 PM 75.0 °F - 72.0 °F 90% 29.96 in 10.0 mi SSE 9.2 mph 17.3 mph 0.00 in Rain , Thunderstorm Light Thunderstorms and Rain
2:53 PM 73.0 °F - 72.0 °F 96% 29.95 in 10.0 mi SW 3.5 mph - 0.00 in Rain , Thunderstorm Light Thunderstorms and Rain
3:15 PM 73.9 °F - 72.0 °F 93% 29.96 in 10.0 mi WSW 3.5 mph - 0.00 in Rain Light Rain
3:53 PM 75.0 °F - 73.9 °F 96% 29.95 in 10.0 mi Variable 6.9 mph - 0.01 in Rain Light Rain
4:53 PM 72.0 °F - 70.0 °F 93% 29.95 in 10.0 mi SSW 6.9 mph - 0.00 in   Overcast
5:53 PM 73.0 °F - 69.1 °F 87% 29.93 in 10.0 mi SSW 9.2 mph - N/A   Mostly Cloudy
6:53 PM 75.9 °F - 68.0 °F 76% 29.93 in 10.0 mi SSW 5.8 mph - N/A   Mostly Cloudy
7:53 PM 75.0 °F - 69.1 °F 82% 29.95 in 10.0 mi SSW 4.6 mph - N/A   Overcast
8:53 PM 75.0 °F - 69.1 °F 82% 29.96 in 10.0 mi SSE 10.4 mph - N/A Rain Light Rain
9:53 PM 75.0 °F - 68.0 °F 79% 29.98 in 10.0 mi SSE 3.5 mph - N/A   Overcast
10:16 PM 75.0 °F - 68.0 °F 79% 29.99 in 10.0 mi SSE 4.6 mph - N/A   Overcast
10:28 PM 75.0 °F - 68.0 °F 79% 29.99 in 10.0 mi SSE 4.6 mph - N/A Rain Light Rain
10:53 PM 75.0 °F - 69.1 °F 82% 29.98 in 10.0 mi SSE 8.1 mph - N/A   Overcast
11:53 PM 75.0 °F - 69.1 °F 82% 29.99 in 10.0 mi South 9.2 mph - N/A   Overcast